Year,Month,Day,Hour,Minute,Value (Times are PST for temperature in C)
2006,07,21,00,00,18.30
2006,07,21,00,01,18.30
2006,07,21,00,02,18.30
2006,07,21,00,03,18.20
2006,07,21,00,04,18.20
2006,07,21,00,05,18.20
2006,07,21,00,06,18.20
2006,07,21,00,07,18.20
2006,07,21,00,08,18.20
2006,07,21,00,09,18.20
2006,07,21,00,10,18.10
2006,07,21,00,11,18.10
2006,07,21,00,12,18.10
2006,07,21,00,13,18.10
2006,07,21,00,14,18.10
2006,07,21,00,15,18.10
2006,07,21,00,16,18.10
2006,07,21,00,17,18.10
2006,07,21,00,18,18.10
2006,07,21,00,19,18.00
2006,07,21,00,20,17.90
2006,07,21,00,21,17.90
2006,07,21,00,22,17.90
2006,07,21,00,23,17.90
2006,07,21,00,24,17.90
2006,07,21,00,25,17.90
2006,07,21,00,26,17.90
2006,07,21,00,27,17.90
2006,07,21,00,28,17.90
2006,07,21,00,29,17.80
2006,07,21,00,30,17.80
2006,07,21,00,31,17.80
2006,07,21,00,32,17.80
2006,07,21,00,33,17.70
2006,07,21,00,34,17.70
2006,07,21,00,35,17.70
2006,07,21,00,36,17.70
2006,07,21,00,37,17.60
2006,07,21,00,38,17.60
2006,07,21,00,39,17.60
2006,07,21,00,40,17.60
2006,07,21,00,41,17.60
2006,07,21,00,42,17.50
2006,07,21,00,43,17.50
2006,07,21,00,44,17.50
2006,07,21,00,45,17.50
2006,07,21,00,46,17.50
2006,07,21,00,47,17.50
2006,07,21,00,48,17.50
2006,07,21,00,49,17.50
2006,07,21,00,50,17.50
2006,07,21,00,51,17.50
2006,07,21,00,52,17.50
2006,07,21,00,53,17.50
2006,07,21,00,54,17.50
2006,07,21,00,55,17.50
2006,07,21,00,56,17.50
2006,07,21,00,57,17.40
2006,07,21,00,58,17.40
2006,07,21,00,59,17.40
2006,07,21,01,00,17.30
2006,07,21,01,01,17.30
2006,07,21,01,02,17.30
2006,07,21,01,03,17.30
2006,07,21,01,04,17.30
2006,07,21,01,05,17.30
2006,07,21,01,06,17.30
2006,07,21,01,07,17.30
2006,07,21,01,08,17.30
2006,07,21,01,09,17.30
2006,07,21,01,10,17.30
2006,07,21,01,11,17.30
2006,07,21,01,12,17.30
2006,07,21,01,13,17.30
2006,07,21,01,14,17.30
2006,07,21,01,15,17.30
2006,07,21,01,16,17.30
2006,07,21,01,17,17.30
2006,07,21,01,18,17.30
2006,07,21,01,19,17.30
2006,07,21,01,20,17.30
2006,07,21,01,21,17.20
2006,07,21,01,22,17.20
2006,07,21,01,23,17.20
2006,07,21,01,24,17.20
2006,07,21,01,25,17.20
2006,07,21,01,26,17.20
2006,07,21,01,27,17.10
2006,07,21,01,28,17.10
2006,07,21,01,29,17.10
2006,07,21,01,30,17.10
2006,07,21,01,31,17.10
2006,07,21,01,32,17.10
2006,07,21,01,33,17.10
2006,07,21,01,34,17.10
2006,07,21,01,35,17.10
2006,07,21,01,36,17.10
2006,07,21,01,37,17.10
2006,07,21,01,38,17.00
2006,07,21,01,39,17.00
2006,07,21,01,40,17.00
2006,07,21,01,41,17.00
2006,07,21,01,42,17.00
2006,07,21,01,43,16.90
2006,07,21,01,44,16.90
2006,07,21,01,45,16.90
2006,07,21,01,46,16.90
2006,07,21,01,47,16.90
2006,07,21,01,48,16.80
2006,07,21,01,49,16.80
2006,07,21,01,50,16.80
2006,07,21,01,51,16.80
2006,07,21,01,52,16.70
2006,07,21,01,53,16.70
2006,07,21,01,54,16.70
2006,07,21,01,55,16.70
2006,07,21,01,56,16.70
2006,07,21,01,57,16.70
2006,07,21,01,58,16.70
2006,07,21,01,59,16.70
2006,07,21,02,00,16.70
2006,07,21,02,01,16.70
2006,07,21,02,02,16.70
2006,07,21,02,03,16.70
2006,07,21,02,04,16.70
2006,07,21,02,05,16.70
2006,07,21,02,06,16.70
2006,07,21,02,07,16.70
2006,07,21,02,08,16.70
2006,07,21,02,09,16.70
2006,07,21,02,10,16.60
2006,07,21,02,11,16.60
2006,07,21,02,12,16.60
2006,07,21,02,13,16.60
2006,07,21,02,14,16.60
2006,07,21,02,15,16.60
2006,07,21,02,16,16.50
2006,07,21,02,17,16.40
2006,07,21,02,18,16.40
2006,07,21,02,19,16.40
2006,07,21,02,20,16.40
2006,07,21,02,21,16.40
2006,07,21,02,22,16.40
2006,07,21,02,23,16.40
2006,07,21,02,24,16.40
2006,07,21,02,25,16.40
2006,07,21,02,26,16.40
2006,07,21,02,27,16.40
2006,07,21,02,28,16.40
2006,07,21,02,29,16.30
2006,07,21,02,30,16.30
2006,07,21,02,31,16.30
2006,07,21,02,32,16.30
2006,07,21,02,33,16.30
2006,07,21,02,34,16.30
2006,07,21,02,35,16.30
2006,07,21,02,36,16.30
2006,07,21,02,37,16.20
2006,07,21,02,38,16.20
2006,07,21,02,39,16.20
2006,07,21,02,40,16.20
2006,07,21,02,41,16.20
2006,07,21,02,42,16.20
2006,07,21,02,43,16.20
2006,07,21,02,44,16.20
2006,07,21,02,45,16.20
2006,07,21,02,46,16.20
2006,07,21,02,47,16.20
2006,07,21,02,48,16.20
2006,07,21,02,49,16.20
2006,07,21,02,50,16.20
2006,07,21,02,51,16.20
2006,07,21,02,52,16.20
2006,07,21,02,53,16.20
2006,07,21,02,54,16.20
2006,07,21,02,55,16.20
2006,07,21,02,56,16.20
2006,07,21,02,57,16.10
2006,07,21,02,58,16.10
2006,07,21,02,59,16.10
2006,07,21,03,00,16.10
2006,07,21,03,01,16.10
2006,07,21,03,02,16.10
2006,07,21,03,03,16.10
2006,07,21,03,04,16.10
2006,07,21,03,05,16.10
2006,07,21,03,06,16.10
2006,07,21,03,07,16.10
2006,07,21,03,08,16.10
2006,07,21,03,09,16.10
2006,07,21,03,10,16.00
2006,07,21,03,11,16.10
2006,07,21,03,12,16.10
2006,07,21,03,13,16.10
2006,07,21,03,14,16.10
2006,07,21,03,15,16.10
2006,07,21,03,16,16.10
2006,07,21,03,17,16.10
2006,07,21,03,18,16.10
2006,07,21,03,19,16.10
2006,07,21,03,20,16.10
2006,07,21,03,21,16.10
2006,07,21,03,22,16.00
2006,07,21,03,23,16.00
2006,07,21,03,24,15.90
2006,07,21,03,25,15.90
2006,07,21,03,26,15.90
2006,07,21,03,27,16.10
2006,07,21,03,28,16.10
2006,07,21,03,29,16.10
2006,07,21,03,30,16.10
2006,07,21,03,31,16.10
2006,07,21,03,32,16.10
2006,07,21,03,33,16.10
2006,07,21,03,34,16.10
2006,07,21,03,35,16.10
2006,07,21,03,36,16.10
2006,07,21,03,37,16.10
2006,07,21,03,38,16.10
2006,07,21,03,39,16.10
2006,07,21,03,40,16.10
2006,07,21,03,41,16.10
2006,07,21,03,42,16.10
2006,07,21,03,43,16.10
2006,07,21,03,44,16.20
2006,07,21,03,45,16.20
2006,07,21,03,46,16.20
2006,07,21,03,47,16.20
2006,07,21,03,48,16.10
2006,07,21,03,49,16.10
2006,07,21,03,50,16.10
2006,07,21,03,51,16.10
2006,07,21,03,52,16.10
2006,07,21,03,53,16.10
2006,07,21,03,54,16.10
2006,07,21,03,55,16.10
2006,07,21,03,56,16.10
2006,07,21,03,57,16.10
2006,07,21,03,58,16.10
2006,07,21,03,59,16.00
2006,07,21,04,00,15.90
2006,07,21,04,01,15.90
2006,07,21,04,02,15.90
2006,07,21,04,03,15.90
2006,07,21,04,04,15.90
2006,07,21,04,05,15.90
2006,07,21,04,06,15.90
2006,07,21,04,07,15.90
2006,07,21,04,08,15.90
2006,07,21,04,09,15.80
2006,07,21,04,10,15.80
2006,07,21,04,11,15.80
2006,07,21,04,12,15.80
2006,07,21,04,13,15.80
2006,07,21,04,14,15.80
2006,07,21,04,15,15.80
2006,07,21,04,16,15.80
2006,07,21,04,17,15.80
2006,07,21,04,18,15.80
2006,07,21,04,19,15.80
2006,07,21,04,20,15.80
2006,07,21,04,21,15.80
2006,07,21,04,22,15.80
2006,07,21,04,23,15.80
2006,07,21,04,24,15.80
2006,07,21,04,25,15.80
2006,07,21,04,26,15.80
2006,07,21,04,27,15.80
2006,07,21,04,28,15.80
2006,07,21,04,29,15.80
2006,07,21,04,30,15.80
2006,07,21,04,31,15.80
2006,07,21,04,32,15.80
2006,07,21,04,33,15.80
2006,07,21,04,34,15.80
2006,07,21,04,35,15.80
2006,07,21,04,36,15.80
2006,07,21,04,37,15.80
2006,07,21,04,38,15.80
2006,07,21,04,39,15.80
2006,07,21,04,40,15.80
2006,07,21,04,41,15.80
2006,07,21,04,42,15.80
2006,07,21,04,43,15.70
2006,07,21,04,44,15.70
2006,07,21,04,45,15.70
2006,07,21,04,46,15.70
2006,07,21,04,47,15.70
2006,07,21,04,48,15.70
2006,07,21,04,49,15.70
2006,07,21,04,50,15.70
2006,07,21,04,51,15.60
2006,07,21,04,52,15.60
2006,07,21,04,53,15.60
2006,07,21,04,54,15.60
2006,07,21,04,55,15.60
2006,07,21,04,56,15.60
2006,07,21,04,57,15.60
2006,07,21,04,58,15.60
2006,07,21,04,59,15.50
2006,07,21,05,00,15.50
2006,07,21,05,01,15.50
2006,07,21,05,02,15.50
2006,07,21,05,03,15.50
2006,07,21,05,04,15.50
2006,07,21,05,05,15.50
2006,07,21,05,06,15.50
2006,07,21,05,07,15.50
2006,07,21,05,08,15.60
2006,07,21,05,09,15.60
2006,07,21,05,10,15.60
2006,07,21,05,11,15.70
2006,07,21,05,12,15.70
2006,07,21,05,13,15.70
2006,07,21,05,14,15.70
2006,07,21,05,15,15.70
2006,07,21,05,16,15.70
2006,07,21,05,17,15.70
2006,07,21,05,18,15.70
2006,07,21,05,19,15.70
2006,07,21,05,20,15.70
2006,07,21,05,21,15.70
2006,07,21,05,22,15.70
2006,07,21,05,23,15.70
2006,07,21,05,24,15.70
2006,07,21,05,25,15.60
2006,07,21,05,26,15.60
2006,07,21,05,27,15.60
2006,07,21,05,28,15.60
2006,07,21,05,29,15.60
2006,07,21,05,30,15.60
2006,07,21,05,31,15.60
2006,07,21,05,32,15.60
2006,07,21,05,33,15.60
2006,07,21,05,34,15.50
2006,07,21,05,35,15.50
2006,07,21,05,36,15.50
2006,07,21,05,37,15.50
2006,07,21,05,38,15.40
2006,07,21,05,39,15.40
2006,07,21,05,40,15.40
2006,07,21,05,41,15.40
2006,07,21,05,42,15.40
2006,07,21,05,43,15.40
2006,07,21,05,44,15.40
2006,07,21,05,45,15.40
2006,07,21,05,46,15.40
2006,07,21,05,47,15.40
2006,07,21,05,48,15.40
2006,07,21,05,49,15.40
2006,07,21,05,50,15.40
2006,07,21,05,51,15.40
2006,07,21,05,52,15.40
2006,07,21,05,53,15.40
2006,07,21,05,54,15.50
2006,07,21,05,55,15.50
2006,07,21,05,56,15.50
2006,07,21,05,57,15.60
2006,07,21,05,58,15.60
2006,07,21,05,59,15.70
2006,07,21,06,00,15.80
2006,07,21,06,01,15.80
2006,07,21,06,02,15.80
2006,07,21,06,03,15.80
2006,07,21,06,04,15.80
2006,07,21,06,05,15.80
2006,07,21,06,06,15.80
2006,07,21,06,07,15.80
2006,07,21,06,08,15.80
2006,07,21,06,09,15.80
2006,07,21,06,10,15.80
2006,07,21,06,11,15.80
2006,07,21,06,12,15.80
2006,07,21,06,13,15.90
2006,07,21,06,14,16.00
2006,07,21,06,15,16.10
2006,07,21,06,16,16.20
2006,07,21,06,17,16.30
2006,07,21,06,18,16.40
2006,07,21,06,19,16.60
2006,07,21,06,20,16.70
2006,07,21,06,21,16.80
2006,07,21,06,22,16.80
2006,07,21,06,23,16.90
2006,07,21,06,24,17.00
2006,07,21,06,25,17.00
2006,07,21,06,26,17.10
2006,07,21,06,27,17.20
2006,07,21,06,28,17.30
2006,07,21,06,29,17.30
2006,07,21,06,30,17.40
2006,07,21,06,31,17.50
2006,07,21,06,32,17.50
2006,07,21,06,33,17.50
2006,07,21,06,34,17.50
2006,07,21,06,35,17.50
2006,07,21,06,36,17.40
2006,07,21,06,37,17.30
2006,07,21,06,38,17.30
2006,07,21,06,39,17.20
2006,07,21,06,40,17.10
2006,07,21,06,41,17.10
2006,07,21,06,42,17.00
2006,07,21,06,43,16.90
2006,07,21,06,44,16.90
2006,07,21,06,45,16.90
2006,07,21,06,46,16.80
2006,07,21,06,47,16.80
2006,07,21,06,48,16.80
2006,07,21,06,49,16.80
2006,07,21,06,50,16.80
2006,07,21,06,51,16.80
2006,07,21,06,52,16.90
2006,07,21,06,53,16.90
2006,07,21,06,54,17.00
2006,07,21,06,55,17.10
2006,07,21,06,56,17.30
2006,07,21,06,57,17.50
2006,07,21,06,58,17.80
2006,07,21,06,59,18.00
2006,07,21,07,00,18.20
2006,07,21,07,01,18.40
2006,07,21,07,02,18.70
2006,07,21,07,03,18.90
2006,07,21,07,04,19.00
2006,07,21,07,05,19.20
2006,07,21,07,06,19.40
2006,07,21,07,07,19.60
2006,07,21,07,08,19.70
2006,07,21,07,09,19.90
2006,07,21,07,10,20.00
2006,07,21,07,11,20.10
2006,07,21,07,12,20.20
2006,07,21,07,13,20.20
2006,07,21,07,14,20.40
2006,07,21,07,15,20.40
2006,07,21,07,16,20.40
2006,07,21,07,17,20.40
2006,07,21,07,18,20.30
2006,07,21,07,19,20.20
2006,07,21,07,20,20.20
2006,07,21,07,21,20.20
2006,07,21,07,22,20.20
2006,07,21,07,23,20.20
2006,07,21,07,24,20.30
2006,07,21,07,25,20.30
2006,07,21,07,26,20.40
2006,07,21,07,27,20.40
2006,07,21,07,28,20.50
2006,07,21,07,29,20.70
2006,07,21,07,30,20.70
2006,07,21,07,31,20.90
2006,07,21,07,32,21.20
2006,07,21,07,33,21.30
2006,07,21,07,34,21.40
2006,07,21,07,35,21.50
2006,07,21,07,36,21.60
2006,07,21,07,37,21.60
2006,07,21,07,38,21.60
2006,07,21,07,39,21.60
2006,07,21,07,40,21.60
2006,07,21,07,41,21.60
2006,07,21,07,42,21.60
2006,07,21,07,43,21.70
2006,07,21,07,44,21.70
2006,07,21,07,45,21.80
2006,07,21,07,46,21.80
2006,07,21,07,47,21.90
2006,07,21,07,48,21.90
2006,07,21,07,49,22.00
2006,07,21,07,50,22.00
2006,07,21,07,51,22.10
2006,07,21,07,52,22.20
2006,07,21,07,53,22.20
2006,07,21,07,54,22.30
2006,07,21,07,55,22.40
2006,07,21,07,56,22.40
2006,07,21,07,57,22.50
2006,07,21,07,58,22.60
2006,07,21,07,59,22.60
2006,07,21,08,00,22.60
2006,07,21,08,01,22.90
2006,07,21,08,02,23.10
2006,07,21,08,03,23.20
2006,07,21,08,04,23.30
2006,07,21,08,05,23.30
2006,07,21,08,06,23.40
2006,07,21,08,07,23.50
2006,07,21,08,08,23.60
2006,07,21,08,09,23.70
2006,07,21,08,10,23.90
2006,07,21,08,11,24.10
2006,07,21,08,12,24.20
2006,07,21,08,13,24.30
2006,07,21,08,14,24.40
2006,07,21,08,15,24.50
2006,07,21,08,16,24.50
2006,07,21,08,17,24.60
2006,07,21,08,18,24.60
2006,07,21,08,19,24.70
2006,07,21,08,20,24.80
2006,07,21,08,21,24.90
2006,07,21,08,22,25.10
2006,07,21,08,23,25.10
2006,07,21,08,24,25.20
2006,07,21,08,25,25.20
2006,07,21,08,26,25.20
2006,07,21,08,27,25.20
2006,07,21,08,28,25.20
2006,07,21,08,29,25.20
2006,07,21,08,30,25.20
2006,07,21,08,31,25.20
2006,07,21,08,32,25.20
2006,07,21,08,33,25.10
2006,07,21,08,34,25.20
2006,07,21,08,35,25.20
2006,07,21,08,36,25.20
2006,07,21,08,37,25.10
2006,07,21,08,38,25.00
2006,07,21,08,39,25.00
2006,07,21,08,40,25.00
2006,07,21,08,41,25.00
2006,07,21,08,42,25.00
2006,07,21,08,43,24.90
2006,07,21,08,44,25.00
2006,07,21,08,45,25.00
2006,07,21,08,46,25.00
2006,07,21,08,47,25.00
2006,07,21,08,48,25.00
2006,07,21,08,49,25.00
2006,07,21,08,50,24.90
2006,07,21,08,51,24.90
2006,07,21,08,52,24.90
2006,07,21,08,53,24.90
2006,07,21,08,54,25.00
2006,07,21,08,55,25.00
2006,07,21,08,56,25.00
2006,07,21,08,57,25.00
2006,07,21,08,58,25.00
2006,07,21,08,59,25.00
2006,07,21,09,00,25.00
2006,07,21,09,01,25.10
2006,07,21,09,02,25.20
2006,07,21,09,03,25.20
2006,07,21,09,04,25.30
2006,07,21,09,05,25.30
2006,07,21,09,06,25.40
2006,07,21,09,07,25.40
2006,07,21,09,08,25.40
2006,07,21,09,09,25.40
2006,07,21,09,10,25.50
2006,07,21,09,11,25.50
2006,07,21,09,12,25.50
2006,07,21,09,13,25.70
2006,07,21,09,14,25.70
2006,07,21,09,15,25.80
2006,07,21,09,16,25.80
2006,07,21,09,17,25.90
2006,07,21,09,18,25.90
2006,07,21,09,19,25.90
2006,07,21,09,20,25.80
2006,07,21,09,21,25.80
2006,07,21,09,22,25.80
2006,07,21,09,23,25.80
2006,07,21,09,24,25.90
2006,07,21,09,25,25.90
2006,07,21,09,26,26.00
2006,07,21,09,27,26.00
2006,07,21,09,28,26.00
2006,07,21,09,29,25.90
2006,07,21,09,30,26.00
2006,07,21,09,31,26.00
2006,07,21,09,32,26.00
2006,07,21,09,33,26.00
2006,07,21,09,34,26.10
2006,07,21,09,35,26.20
2006,07,21,09,36,26.40
2006,07,21,09,37,26.40
2006,07,21,09,38,26.30
2006,07,21,09,39,26.00
2006,07,21,09,40,26.00
2006,07,21,09,41,26.00
2006,07,21,09,42,26.10
2006,07,21,09,43,26.10
2006,07,21,09,44,26.10
2006,07,21,09,45,26.10
2006,07,21,09,46,26.10
2006,07,21,09,47,26.20
2006,07,21,09,48,26.20
2006,07,21,09,49,26.20
2006,07,21,09,50,26.20
2006,07,21,09,51,26.20
2006,07,21,09,52,26.20
2006,07,21,09,53,26.10
2006,07,21,09,54,26.10
2006,07,21,09,55,26.20
2006,07,21,09,56,26.10
2006,07,21,09,57,26.20
2006,07,21,09,58,26.20
2006,07,21,09,59,26.30
2006,07,21,10,00,26.40
2006,07,21,10,01,26.40
2006,07,21,10,02,26.40
2006,07,21,10,03,26.40
2006,07,21,10,04,26.40
2006,07,21,10,05,26.40
2006,07,21,10,06,26.60
2006,07,21,10,07,26.60
2006,07,21,10,08,26.70
2006,07,21,10,09,26.80
2006,07,21,10,10,26.80
2006,07,21,10,11,26.80
2006,07,21,10,12,26.80
2006,07,21,10,13,26.80
2006,07,21,10,14,26.80
2006,07,21,10,15,26.80
2006,07,21,10,16,26.80
2006,07,21,10,17,27.00
2006,07,21,10,18,27.10
2006,07,21,10,19,27.10
2006,07,21,10,20,27.10
2006,07,21,10,21,27.10
2006,07,21,10,22,27.10
2006,07,21,10,23,26.90
2006,07,21,10,24,26.80
2006,07,21,10,25,26.80
2006,07,21,10,26,26.90
2006,07,21,10,27,26.90
2006,07,21,10,28,26.90
2006,07,21,10,29,26.90
2006,07,21,10,30,26.90
2006,07,21,10,31,26.90
2006,07,21,10,32,26.90
2006,07,21,10,33,26.90
2006,07,21,10,34,26.80
2006,07,21,10,35,26.90
2006,07,21,10,36,27.00
2006,07,21,10,37,27.10
2006,07,21,10,38,27.10
2006,07,21,10,39,27.10
2006,07,21,10,40,27.10
2006,07,21,10,41,27.20
2006,07,21,10,42,27.30
2006,07,21,10,43,27.30
2006,07,21,10,44,27.30
2006,07,21,10,45,27.30
2006,07,21,10,46,27.20
2006,07,21,10,47,27.20
2006,07,21,10,48,27.20
2006,07,21,10,49,27.30
2006,07,21,10,50,27.30
2006,07,21,10,51,27.30
2006,07,21,10,52,27.30
2006,07,21,10,53,27.30
2006,07,21,10,54,27.30
2006,07,21,10,55,27.40
2006,07,21,10,56,27.40
2006,07,21,10,57,27.40
2006,07,21,10,58,27.50
2006,07,21,10,59,27.60
2006,07,21,11,00,27.60
2006,07,21,11,01,27.70
2006,07,21,11,02,27.80
2006,07,21,11,03,27.80
2006,07,21,11,04,27.80
2006,07,21,11,05,27.70
2006,07,21,11,06,27.80
2006,07,21,11,07,27.90
2006,07,21,11,08,27.80
2006,07,21,11,09,27.80
2006,07,21,11,10,27.80
2006,07,21,11,11,27.70
2006,07,21,11,12,27.60
2006,07,21,11,13,27.60
2006,07,21,11,14,27.60
2006,07,21,11,15,27.60
2006,07,21,11,16,27.60
2006,07,21,11,17,27.70
2006,07,21,11,18,27.80
2006,07,21,11,19,27.80
2006,07,21,11,20,27.80
2006,07,21,11,21,27.90
2006,07,21,11,22,27.90
2006,07,21,11,23,27.90
2006,07,21,11,24,27.90
2006,07,21,11,25,27.90
2006,07,21,11,26,27.90
2006,07,21,11,27,27.90
2006,07,21,11,28,28.00
2006,07,21,11,29,28.20
2006,07,21,11,30,28.30
2006,07,21,11,31,28.30
2006,07,21,11,32,28.30
2006,07,21,11,33,28.30
2006,07,21,11,34,28.30
2006,07,21,11,35,28.40
2006,07,21,11,36,28.40
2006,07,21,11,37,28.50
2006,07,21,11,38,28.60
2006,07,21,11,39,28.60
2006,07,21,11,40,28.60
2006,07,21,11,41,28.60
2006,07,21,11,42,28.70
2006,07,21,11,43,28.70
2006,07,21,11,44,28.90
2006,07,21,11,45,28.90
2006,07,21,11,46,28.90
2006,07,21,11,47,28.90
2006,07,21,11,48,28.80
2006,07,21,11,49,28.70
2006,07,21,11,50,28.50
2006,07,21,11,51,28.40
2006,07,21,11,52,28.50
2006,07,21,11,53,28.60
2006,07,21,11,54,28.60
2006,07,21,11,55,28.80
2006,07,21,11,56,28.90
2006,07,21,11,57,29.00
2006,07,21,11,58,29.10
2006,07,21,11,59,29.20
2006,07,21,12,00,29.30
2006,07,21,12,01,29.40
2006,07,21,12,02,29.40
2006,07,21,12,03,29.50
2006,07,21,12,04,29.60
2006,07,21,12,05,29.60
2006,07,21,12,06,29.60
2006,07,21,12,07,29.60
2006,07,21,12,08,29.50
2006,07,21,12,09,29.40
2006,07,21,12,10,29.40
2006,07,21,12,11,29.40
2006,07,21,12,12,29.50
2006,07,21,12,13,29.50
2006,07,21,12,14,29.60
2006,07,21,12,15,29.50
2006,07,21,12,16,29.40
2006,07,21,12,17,29.40
2006,07,21,12,18,29.30
2006,07,21,12,19,29.30
2006,07,21,12,20,29.30
2006,07,21,12,21,29.40
2006,07,21,12,22,29.40
2006,07,21,12,23,29.40
2006,07,21,12,24,29.40
2006,07,21,12,25,29.40
2006,07,21,12,26,29.40
2006,07,21,12,27,29.30
2006,07,21,12,28,29.20
2006,07,21,12,29,29.20
2006,07,21,12,30,29.10
2006,07,21,12,31,29.10
2006,07,21,12,32,29.10
2006,07,21,12,33,29.20
2006,07,21,12,34,29.30
2006,07,21,12,35,29.40
2006,07,21,12,36,29.40
2006,07,21,12,37,29.50
2006,07,21,12,38,29.50
2006,07,21,12,39,29.50
2006,07,21,12,40,29.50
2006,07,21,12,41,29.50
2006,07,21,12,42,29.70
2006,07,21,12,43,29.70
2006,07,21,12,44,29.70
2006,07,21,12,45,29.70
2006,07,21,12,46,29.60
2006,07,21,12,47,29.50
2006,07,21,12,48,29.40
2006,07,21,12,49,29.40
2006,07,21,12,50,29.40
2006,07,21,12,51,29.40
2006,07,21,12,52,29.50
2006,07,21,12,53,29.60
2006,07,21,12,54,29.60
2006,07,21,12,55,29.50
2006,07,21,12,56,29.50
2006,07,21,12,57,29.60
2006,07,21,12,58,29.50
2006,07,21,12,59,29.50
2006,07,21,13,00,29.50
2006,07,21,13,01,29.50
2006,07,21,13,02,29.50
2006,07,21,13,03,29.50
2006,07,21,13,04,29.70
2006,07,21,13,05,29.70
2006,07,21,13,06,29.90
2006,07,21,13,07,30.00
2006,07,21,13,08,30.10
2006,07,21,13,09,30.20
2006,07,21,13,10,30.20
2006,07,21,13,11,30.30
2006,07,21,13,12,30.30
2006,07,21,13,13,30.30
2006,07,21,13,14,30.30
2006,07,21,13,15,30.30
2006,07,21,13,16,30.20
2006,07,21,13,17,30.20
2006,07,21,13,18,30.20
2006,07,21,13,19,30.20
2006,07,21,13,20,30.20
2006,07,21,13,21,30.20
2006,07,21,13,22,30.20
2006,07,21,13,23,30.20
2006,07,21,13,24,30.20
2006,07,21,13,25,30.20
2006,07,21,13,26,30.10
2006,07,21,13,27,30.10
2006,07,21,13,28,30.10
2006,07,21,13,29,30.20
2006,07,21,13,30,30.20
2006,07,21,13,31,30.20
2006,07,21,13,32,30.20
2006,07,21,13,33,30.10
2006,07,21,13,34,30.20
2006,07,21,13,35,30.20
2006,07,21,13,36,30.20
2006,07,21,13,37,30.30
2006,07,21,13,38,30.40
2006,07,21,13,39,30.40
2006,07,21,13,40,30.50
2006,07,21,13,41,30.60
2006,07,21,13,42,30.60
2006,07,21,13,43,30.40
2006,07,21,13,44,30.50
2006,07,21,13,45,30.40
2006,07,21,13,46,30.40
2006,07,21,13,47,30.60
2006,07,21,13,48,30.60
2006,07,21,13,49,30.70
2006,07,21,13,50,30.60
2006,07,21,13,51,30.60
2006,07,21,13,52,30.50
2006,07,21,13,53,30.60
2006,07,21,13,54,30.50
2006,07,21,13,55,30.60
2006,07,21,13,56,30.60
2006,07,21,13,57,30.60
2006,07,21,13,58,30.60
2006,07,21,13,59,30.60
2006,07,21,14,00,30.60
2006,07,21,14,01,30.60
2006,07,21,14,02,30.80
2006,07,21,14,03,30.70
2006,07,21,14,04,30.60
2006,07,21,14,05,30.40
2006,07,21,14,06,30.30
2006,07,21,14,07,30.30
2006,07,21,14,08,30.30
2006,07,21,14,09,30.20
2006,07,21,14,10,30.30
2006,07,21,14,11,30.30
2006,07,21,14,12,30.40
2006,07,21,14,13,30.40
2006,07,21,14,14,30.40
2006,07,21,14,15,30.40
2006,07,21,14,16,30.40
2006,07,21,14,17,30.30
2006,07,21,14,18,30.30
2006,07,21,14,19,30.50
2006,07,21,14,20,30.60
2006,07,21,14,21,30.70
2006,07,21,14,22,30.70
2006,07,21,14,23,30.80
2006,07,21,14,24,30.90
2006,07,21,14,25,30.90
2006,07,21,14,26,30.90
2006,07,21,14,27,30.90
2006,07,21,14,28,30.80
2006,07,21,14,29,30.80
2006,07,21,14,30,30.80
2006,07,21,14,31,30.80
2006,07,21,14,32,30.80
2006,07,21,14,33,30.90
2006,07,21,14,34,30.90
2006,07,21,14,35,30.90
2006,07,21,14,36,31.00
2006,07,21,14,37,31.00
2006,07,21,14,38,31.00
2006,07,21,14,39,31.10
2006,07,21,14,40,31.10
2006,07,21,14,41,31.10
2006,07,21,14,42,31.10
2006,07,21,14,43,31.10
2006,07,21,14,44,31.10
2006,07,21,14,45,31.10
2006,07,21,14,46,31.10
2006,07,21,14,47,31.10
2006,07,21,14,48,31.10
2006,07,21,14,49,31.20
2006,07,21,14,50,31.20
2006,07,21,14,51,31.10
2006,07,21,14,52,31.00
2006,07,21,14,53,30.90
2006,07,21,14,54,30.80
2006,07,21,14,55,30.70
2006,07,21,14,56,30.70
2006,07,21,14,57,30.70
2006,07,21,14,58,30.70
2006,07,21,14,59,30.70
2006,07,21,15,00,30.60
2006,07,21,15,01,30.60
2006,07,21,15,02,30.60
2006,07,21,15,03,30.40
2006,07,21,15,04,30.40
2006,07,21,15,05,30.40
2006,07,21,15,06,30.40
2006,07,21,15,07,30.40
2006,07,21,15,08,30.40
2006,07,21,15,09,30.40
2006,07,21,15,10,30.30
2006,07,21,15,11,30.30
2006,07,21,15,12,30.40
2006,07,21,15,13,30.60
2006,07,21,15,14,30.60
2006,07,21,15,15,30.60
2006,07,21,15,16,30.60
2006,07,21,15,17,30.70
2006,07,21,15,18,30.80
2006,07,21,15,19,30.80
2006,07,21,15,20,30.80
2006,07,21,15,21,30.80
2006,07,21,15,22,30.80
2006,07,21,15,23,30.80
2006,07,21,15,24,30.80
2006,07,21,15,25,30.90
2006,07,21,15,26,31.00
2006,07,21,15,27,31.00
2006,07,21,15,28,31.10
2006,07,21,15,29,31.10
2006,07,21,15,30,31.10
2006,07,21,15,31,31.10
2006,07,21,15,32,31.10
2006,07,21,15,33,31.10
2006,07,21,15,34,31.20
2006,07,21,15,35,31.30
2006,07,21,15,36,31.30
2006,07,21,15,37,31.30
2006,07,21,15,38,31.30
2006,07,21,15,39,31.30
2006,07,21,15,40,31.20
2006,07,21,15,41,31.20
2006,07,21,15,42,31.20
2006,07,21,15,43,31.20
2006,07,21,15,44,31.30
2006,07,21,15,45,31.30
2006,07,21,15,46,31.30
2006,07,21,15,47,31.30
2006,07,21,15,48,31.20
2006,07,21,15,49,31.30
2006,07,21,15,50,31.30
2006,07,21,15,51,31.40
2006,07,21,15,52,31.40
2006,07,21,15,53,31.40
2006,07,21,15,54,31.50
2006,07,21,15,55,31.60
2006,07,21,15,56,31.60
2006,07,21,15,57,31.70
2006,07,21,15,58,31.70
2006,07,21,15,59,31.70
2006,07,21,16,00,31.60
2006,07,21,16,01,31.60
2006,07,21,16,02,31.70
2006,07,21,16,03,31.80
2006,07,21,16,04,31.80
2006,07,21,16,05,31.90
2006,07,21,16,06,31.90
2006,07,21,16,07,31.90
2006,07,21,16,08,31.90
2006,07,21,16,09,31.90
2006,07,21,16,10,32.00
2006,07,21,16,11,32.10
2006,07,21,16,12,32.00
2006,07,21,16,13,31.90
2006,07,21,16,14,31.90
2006,07,21,16,15,31.90
2006,07,21,16,16,31.90
2006,07,21,16,17,31.90
2006,07,21,16,18,31.80
2006,07,21,16,19,31.80
2006,07,21,16,20,31.80
2006,07,21,16,21,31.80
2006,07,21,16,22,31.90
2006,07,21,16,23,31.90
2006,07,21,16,24,31.90
2006,07,21,16,25,32.00
2006,07,21,16,26,32.10
2006,07,21,16,27,32.10
2006,07,21,16,28,32.10
2006,07,21,16,29,32.20
2006,07,21,16,30,32.20
2006,07,21,16,31,32.30
2006,07,21,16,32,32.40
2006,07,21,16,33,32.40
2006,07,21,16,34,32.40
2006,07,21,16,35,32.40
2006,07,21,16,36,32.40
2006,07,21,16,37,32.30
2006,07,21,16,38,32.20
2006,07,21,16,39,32.20
2006,07,21,16,40,32.20
2006,07,21,16,41,32.20
2006,07,21,16,42,32.10
2006,07,21,16,43,32.20
2006,07,21,16,44,32.20
2006,07,21,16,45,32.30
2006,07,21,16,46,32.30
2006,07,21,16,47,32.30
2006,07,21,16,48,32.30
2006,07,21,16,49,32.20
2006,07,21,16,50,32.20
2006,07,21,16,51,32.30
2006,07,21,16,52,32.40
2006,07,21,16,53,32.30
2006,07,21,16,54,32.30
2006,07,21,16,55,32.30
2006,07,21,16,56,32.30
2006,07,21,16,57,32.20
2006,07,21,16,58,32.30
2006,07,21,16,59,32.30
2006,07,21,17,00,32.40
2006,07,21,17,01,32.40
2006,07,21,17,02,32.40
2006,07,21,17,03,32.40
2006,07,21,17,04,32.40
2006,07,21,17,05,32.50
2006,07,21,17,06,32.50
2006,07,21,17,07,32.60
2006,07,21,17,08,32.70
2006,07,21,17,09,32.80
2006,07,21,17,10,32.80
2006,07,21,17,11,32.80
2006,07,21,17,12,32.80
2006,07,21,17,13,32.80
2006,07,21,17,14,32.80
2006,07,21,17,15,32.90
2006,07,21,17,16,32.90
2006,07,21,17,17,32.80
2006,07,21,17,18,32.80
2006,07,21,17,19,32.80